[Iaude] MPEC R82: 2023 RE2 [a=1.83,e=0.40,i=12.3,H=23.5]

mpec at marsden.cfa.harvard.edu mpec at marsden.cfa.harvard.edu
Sat Sep 9 10:33:28 EDT 2023


M.P.E.C. 2023-R82                             Issued 2023 September 9, 14:32 UT

     The Minor Planet Electronic Circulars contain information on unusual
         minor planets, routine data on comets and natural satellites,
         and occasional editorial announcements.  They are published
    on behalf of Division F of the International Astronomical Union by the
          Minor Planet Center, Smithsonian Astrophysical Observatory,
                          Cambridge, MA 02138, U.S.A.
			  
             Prepared using the Tamkin Foundation Computer Network

                              MPC at CFA.HARVARD.EDU
            URL https://www.minorplanetcenter.net/    ISSN 1523-6714

                                    2023 RE2                                    


Observations:
     K23R02E  C2023 09 03.42331021 19 04.251+08 47 14.19         20.69GVER082F51
     K23R02E  C2023 09 03.42611121 19 03.943+08 47 30.43         21.50GVER082F51
     K23R02E*5C2023 09 07.80921 21 13 08.17 +15 51 22.9          21.4 GXER082033
     K23R02E 5C2023 09 07.81203 21 13 07.91 +15 51 39.1                XER082033
     K23R02E 5C2023 09 07.81486 21 13 07.66 +15 51 55.8          21.1 GXER082033
     K23R02E 5C2023 09 07.87410 21 13 02.16 +15 57 40.3          21.3 GXER082033
     K23R02E 5C2023 09 07.87695 21 13 01.90 +15 57 56.5                XER082033
     K23R02E 5C2023 09 07.87980 21 13 01.64 +15 58 12.8          21.3 GXER082033
     K23R02E 1C2023 09 08.04690 21 12 46.47 +16 14 15.8          20.1 VXER082033
     K23R02E 1C2023 09 08.04963 21 12 46.23 +16 14 31.7          20.5 VXER082033
     K23R02E 1C2023 09 08.05239 21 12 45.96 +16 14 47.3          20.1 VXER082033
     K23R02E 1C2023 09 08.84020 21 11 48.88 +17 30 40.8          20.7 VXER082033
     K23R02E 1C2023 09 08.84165 21 11 48.76 +17 30 49.1          20.5 VXER082033
     K23R02E 1C2023 09 08.84309 21 11 48.63 +17 30 57.4          20.5 VXER082033
     K23R02E 1C2023 09 08.84464 21 11 48.49 +17 31 06.3          20.7 VXER082033
     K23R02E 2C2023 09 08.85797921 11 48.17 +17 32 34.2          20.6 GVER082Z84
     K23R02E 2C2023 09 08.86564021 11 47.42 +17 33 19.0          21.7 GVER082Z84
     K23R02E 2C2023 09 08.87330021 11 46.72 +17 34 03.1          21.5 GVER082Z84
     K23R02E KC2023 09 08.88996 21 11 44.49 +17 35 32.1                VER082204
     K23R02E KC2023 09 08.91723 21 11 41.97 +17 38 09.3          21.5 GVER082204

Observer details:
033 Karl Schwarzschild Observatory, Tautenburg.  Observers C. Demeautis, B.
    Stecklum, S. Melnikov, F. Ludwig, C. Hoegner, M. Hartmann.  Measurers C.
    Demeautis, B. Stecklum.  1.34-m f/3 Schmidt + CCD.
204 Schiaparelli Observatory.  Observers L. Buzzi, G. Galli.  0.84-m f/3.5
    reflector + CCD.
F51 Pan-STARRS 1, Haleakala.  Observers J. Bulger, K. Chambers, T. Lowe, P.
    Minguez, A. Schultz, I. Smith.  Measurers S. Chastel, J. Fairlamb, M.
    Huber, Y. Ramanjooloo, R. Wainscoat, R. Weryk.  1.8-m Ritchey-Chretien +
    CCD.
Z84 Calar Alto-Schmidt.  Observer E. Schwab.  Measurers E. Schwab, M. Micheli.
    0.8-m f/3 Schmidt + CCD.

Orbital elements:
2023 RE2                                                 Earth MOID = 0.1464 AU
Epoch 2023 Sept. 13.0 TT = JDT 2460200.5                Veres                   
M 350.48167              (2000.0)            P               Q                  
n   0.39749209     Peri.   47.54086     +0.96884549     -0.21434224             
a   1.8319645      Node   324.30808     +0.11340008     +0.82931668             
e   0.4021041      Incl.   12.27912     +0.22017910     +0.51603416             
P   2.48           H   23.59          G   0.15           U   9                  
Residuals in seconds of arc
230903 F51  0.1+  0.1-    230907 033  0.4-  2.3+    230908 033  0.1+  0.1+
230903 F51  0.1-  0.1+    230908 033  0.1-  2.0+    230908 Z84  0.2+  0.4-
230907 033  0.6-  2.8+    230908 033  0.2-  2.3+    230908 Z84  0.2-  0.1+
230907 033  0.6-  2.6+    230908 033  0.7-  2.0+    230908 Z84  0.1+  0.2-
230907 033  0.4-  2.8+    230908 033  0.1-  0.2+    230908 204  0.1-  0.0
230907 033  0.5-  2.9+    230908 033  0.1+  0.2+    230908 204  0.0   0.3+
230907 033  0.4-  2.5+    230908 033  0.1+  0.1+

Ephemeris:
2023 RE2                 a,e,i = 1.83, 0.40, 12                  q = 1.0953
Date    TT    R. A. (2000) Decl.     Delta      r    Elong.  Phase     V
2023 08 10    21 51 22.0 -20 55 14   0.2313  1.2425   170.4     7.8    21.4
...
2023 08 25    21 32 49.9 -05 20 05   0.1724  1.1805   168.5     9.8    20.8
...
2023 09 02    21 21 07.5 +06 31 14   0.1567  1.1530   155.0    21.7    20.9
...
2023 09 08    21 12 52.3 +16 10 15   0.1524  1.1355   144.7    30.9    21.1
2023 09 09    21 11 36.2 +17 46 28   0.1523  1.1329   143.0    32.3    21.1
2023 09 10    21 10 22.7 +19 21 58   0.1523  1.1303   141.4    33.8    21.2
...
2023 09 16    21 04 07.6 +28 29 14   0.1557  1.1167   132.5    41.6    21.4
...
2023 09 24    20 59 43.8 +38 56 35   0.1668  1.1036   123.2    49.5    21.8
...
2023 10 09    21 07 49.2 +52 49 57   0.1983  1.0955   114.2    56.3    22.3

M. P. C. Staff               (C) Copyright 2023 MPC           M.P.E.C. 2023-R82





More information about the Iaude mailing list